TimeMDT,TemperatureF,Dew PointF,Humidity,Sea Level PressureIn,VisibilityMPH,Wind Direction,Wind SpeedMPH,Gust SpeedMPH,PrecipitationIn,Events,Conditions,WindDirDegrees,DateUTC
12:52 AM,28.0,25.0,88,30.17,10.0,Calm,Calm,-,N/A,,Clear,0,2012-10-28 06:52:00
1:52 AM,33.1,26.1,75,30.14,10.0,Calm,Calm,-,N/A,,Partly Cloudy,0,2012-10-28 07:52:00
2:52 AM,30.9,26.1,82,30.11,10.0,NW,4.6,-,N/A,,Clear,310,2012-10-28 08:52:00
3:52 AM,30.0,24.1,79,30.11,10.0,NW,4.6,-,N/A,,Clear,310,2012-10-28 09:52:00
4:52 AM,26.1,21.9,84,30.12,10.0,Calm,Calm,-,N/A,,Overcast,0,2012-10-28 10:52:00
5:52 AM,27.0,23.0,85,30.15,9.0,Calm,Calm,-,N/A,,Scattered Clouds,0,2012-10-28 11:52:00
6:52 AM,26.1,21.9,84,30.15,10.0,Calm,Calm,-,N/A,,Clear,0,2012-10-28 12:52:00
7:52 AM,25.0,21.9,88,30.15,10.0,Calm,Calm,-,N/A,,Clear,0,2012-10-28 13:52:00
8:52 AM,30.9,26.1,82,30.14,10.0,Calm,Calm,-,N/A,,Clear,0,2012-10-28 14:52:00
9:52 AM,37.0,30.0,76,30.12,10.0,Calm,Calm,-,N/A,,Clear,0,2012-10-28 15:52:00
10:52 AM,44.1,30.0,58,30.08,10.0,SSW,6.9,-,N/A,,Clear,200,2012-10-28 16:52:00
11:52 AM,50.0,30.0,46,30.04,10.0,South,5.8,-,N/A,,Clear,180,2012-10-28 17:52:00
12:15 PM,51.8,30.2,44,29.98,1.8,South,6.9,-,N/A,,Haze,190,2012-10-28 18:15:00
12:29 PM,51.8,30.2,44,29.97,10.0,South,8.1,-,N/A,,Clear,190,2012-10-28 18:29:00
12:52 PM,53.1,30.0,41,30.01,10.0,SSW,8.1,-,N/A,,Clear,200,2012-10-28 18:52:00
1:52 PM,55.9,30.0,37,29.96,10.0,South,9.2,-,N/A,,Clear,190,2012-10-28 19:52:00
2:52 PM,59.0,30.9,35,29.94,10.0,SW,9.2,-,N/A,,Partly Cloudy,220,2012-10-28 20:52:00
3:52 PM,57.9,30.0,35,29.94,10.0,West,6.9,-,N/A,,Overcast,280,2012-10-28 21:52:00
4:52 PM,57.0,32.0,39,29.96,10.0,WNW,3.5,-,N/A,,Overcast,290,2012-10-28 22:52:00
5:52 PM,48.9,34.0,56,29.98,10.0,Calm,Calm,-,N/A,,Scattered Clouds,0,2012-10-28 23:52:00
6:52 PM,41.0,33.1,73,30.01,10.0,East,5.8,-,N/A,,Clear,90,2012-10-29 00:52:00
7:52 PM,39.9,33.1,77,30.02,10.0,ENE,4.6,-,N/A,,Clear,60,2012-10-29 01:52:00
8:52 PM,39.0,33.1,79,30.04,10.0,Calm,Calm,-,N/A,,Mostly Cloudy,0,2012-10-29 02:52:00
9:52 PM,37.0,32.0,82,30.04,10.0,Calm,Calm,-,N/A,,Partly Cloudy,0,2012-10-29 03:52:00
10:52 PM,33.1,30.9,92,30.04,10.0,Calm,Calm,-,N/A,,Clear,0,2012-10-29 04:52:00
11:52 PM,30.9,28.9,92,30.02,10.0,East,3.5,-,N/A,,Clear,90,2012-10-29 05:52:00